| time (UTC) | temp C | wind direction | speed KPH | gust KPH | rain 1hr cm | rain 24hr cm | rain mn cm | humidity % | barometer mb |
| 20260506070529 | 8 | 327 | 9.7 | 16.1 | 0.00 | 0.00 | 0.00 | 74 | 1018.8 |
| 20260506062029 | 8 | 317 | 16.1 | 22.5 | 0.00 | 0.00 | 0.00 | 75 | 1018.7 |
| 20260506061541 | 8 | 307 | 16.1 | 22.5 | 0.00 | 0.00 | 0.00 | 75 | 1018.6 |
| 20260506061030 | 8 | 320 | 12.9 | 22.5 | 0.00 | 0.00 | 0.00 | 75 | 1018.7 |
| 20260506060530 | 8 | 323 | 16.1 | 27.4 | 0.00 | 0.00 | 0.00 | 75 | 1018.7 |
| 20260506051030 | 8 | 306 | 16.1 | 33.8 | 0.00 | 0.00 | 0.00 | 73 | 1018.4 |
| 20260506050529 | 8 | 330 | 20.9 | 33.8 | 0.00 | 0.00 | 0.00 | 73 | 1018.3 |
| 20260506045029 | 9 | 308 | 20.9 | 29.0 | 0.00 | 0.00 | 0.00 | 74 | 1018.2 |
| 20260506044545 | 9 | 298 | 16.1 | 30.6 | 0.00 | 0.00 | 0.00 | 74 | 1018.1 |
| 20260506044030 | 9 | 320 | 22.5 | 30.6 | 0.00 | 0.00 | 0.00 | 74 | 1018.1 |
| 20260506043529 | 9 | 302 | 17.7 | 27.4 | 0.00 | 0.00 | 0.00 | 74 | 1018.0 |
| 20260506043044 | 9 | 300 | 16.1 | 27.4 | 0.00 | 0.00 | 0.00 | 74 | 1018.0 |
| 20260506042531 | 9 | 311 | 16.1 | 25.7 | 0.00 | 0.00 | 0.00 | 75 | 1017.8 |
| 20260506042031 | 9 | 297 | 17.7 | 25.7 | 0.00 | 0.00 | 0.00 | 75 | 1017.9 |
| 20260506041548 | 9 | 314 | 16.1 | 25.7 | 0.00 | 0.00 | 0.00 | 75 | 1017.7 |
| 20260506041030 | 10 | 294 | 16.1 | 25.7 | 0.00 | 0.00 | 0.00 | 74 | 1017.6 |
| 20260506040530 | 9 | 299 | 14.5 | 24.1 | 0.00 | 0.00 | 0.00 | 74 | 1017.7 |
| 20260506040044 | 9 | 277 | 16.1 | 24.1 | 0.00 | 0.00 | 0.00 | 74 | 1017.4 |
| 20260506035533 | 10 | 284 | 16.1 | 25.7 | 0.00 | 0.00 | 0.00 | 73 | 1017.4 |
| 20260506035030 | 10 | 306 | 16.1 | 25.7 | 0.00 | 0.00 | 0.00 | 73 | 1017.3 |
| 20260506034542 | 10 | 312 | 17.7 | 25.7 | 0.00 | 0.00 | 0.00 | 72 | 1017.1 |
| 20260506034029 | 10 | 268 | 16.1 | 25.7 | 0.00 | 0.00 | 0.00 | 72 | 1017.0 |
| 20260506033529 | 10 | 287 | 12.9 | 27.4 | 0.00 | 0.00 | 0.00 | 70 | 1017.0 |
| 20260506033042 | 10 | 294 | 14.5 | 27.4 | 0.00 | 0.00 | 0.00 | 71 | 1016.9 |
| 20260506032529 | 10 | 281 | 14.5 | 27.4 | 0.00 | 0.00 | 0.00 | 70 | 1017.0 |
| 20260506032031 | 11 | 277 | 16.1 | 27.4 | 0.00 | 0.00 | 0.00 | 70 | 1016.9 |
| 20260506031544 | 11 | 309 | 17.7 | 27.4 | 0.00 | 0.00 | 0.00 | 70 | 1016.8 |
| 20260506031029 | 11 | 288 | 12.9 | 27.4 | 0.00 | 0.00 | 0.00 | 69 | 1016.9 |
| 20260506030532 | 11 | 265 | 9.7 | 22.5 | 0.00 | 0.00 | 0.00 | 68 | 1016.7 |
| 20260506030058 | 11 | 310 | 14.5 | 22.5 | 0.00 | 0.00 | 0.00 | 68 | 1016.7 |
| 20260506025530 | 12 | 281 | 14.5 | 22.5 | 0.00 | 0.00 | 0.00 | 66 | 1016.7 |
| 20260506025033 | 12 | 300 | 16.1 | 22.5 | 0.00 | 0.00 | 0.00 | 65 | 1016.7 |
| 20260506024552 | 12 | 298 | 14.5 | 22.5 | 0.00 | 0.00 | 0.00 | 65 | 1016.6 |
| 20260506024030 | 12 | 309 | 12.9 | 22.5 | 0.00 | 0.00 | 0.00 | 64 | 1016.6 |
| 20260506023530 | 12 | 275 | 16.1 | 25.7 | 0.00 | 0.00 | 0.00 | 63 | 1016.5 |
| 20260506023041 | 12 | 281 | 19.3 | 25.7 | 0.00 | 0.00 | 0.00 | 62 | 1016.5 |
| 20260506022529 | 12 | 280 | 12.9 | 24.1 | 0.00 | 0.00 | 0.00 | 62 | 1016.4 |
| 20260506022029 | 13 | 304 | 12.9 | 27.4 | 0.00 | 0.00 | 0.00 | 61 | 1016.4 |
| 20260506021541 | 13 | 284 | 16.1 | 27.4 | 0.00 | 0.00 | 0.00 | 59 | 1016.5 |
| 20260506021030 | 13 | 294 | 17.7 | 25.7 | 0.00 | 0.00 | 0.00 | 58 | 1016.4 |
| 20260506020534 | 13 | 286 | 16.1 | 27.4 | 0.00 | 0.00 | 0.00 | 58 | 1016.3 |
| 20260506020038 | 13 | 284 | 19.3 | 27.4 | 0.00 | 0.00 | 0.00 | 57 | 1016.3 |
| 20260506015531 | 13 | 276 | 16.1 | 27.4 | 0.00 | 0.00 | 0.00 | 56 | 1016.3 |
| 20260506015029 | 14 | 265 | 16.1 | 24.1 | 0.00 | 0.00 | 0.00 | 56 | 1016.3 |
| 20260506014555 | 14 | 269 | 12.9 | 24.1 | 0.00 | 0.00 | 0.00 | 56 | 1016.2 |
| 20260506014030 | 13 | 265 | 16.1 | 27.4 | 0.00 | 0.00 | 0.00 | 56 | 1016.0 |
| 20260506013530 | 13 | 301 | 19.3 | 27.4 | 0.00 | 0.00 | 0.00 | 56 | 1016.0 |
| 20260506013048 | 14 | 300 | 17.7 | 27.4 | 0.00 | 0.00 | 0.00 | 55 | 1015.9 |
| 20260506012529 | 14 | 274 | 19.3 | 25.7 | 0.00 | 0.00 | 0.00 | 55 | 1015.8 |
| 20260506012030 | 14 | 266 | 17.7 | 25.7 | 0.00 | 0.00 | 0.00 | 55 | 1015.8 |
| 20260506011542 | 14 | 273 | 14.5 | 27.4 | 0.00 | 0.00 | 0.00 | 57 | 1015.8 |
| 20260506011033 | 15 | 265 | 16.1 | 29.0 | 0.00 | 0.00 | 0.00 | 56 | 1015.9 |
| 20260506010531 | 15 | 289 | 19.3 | 29.0 | 0.00 | 0.00 | 0.00 | 55 | 1016.0 |
| 20260506010051 | 15 | 271 | 16.1 | 25.7 | 0.00 | 0.00 | 0.00 | 56 | 1016.0 |
| 20260506005531 | 15 | 296 | 16.1 | 27.4 | 0.00 | 0.00 | 0.00 | 56 | 1015.9 |
| 20260506005029 | 15 | 267 | 17.7 | 27.4 | 0.00 | 0.00 | 0.00 | 58 | 1015.9 |
| 20260506004548 | 15 | 281 | 12.9 | 24.1 | 0.00 | 0.00 | 0.00 | 57 | 1015.9 |
| 20260506004029 | 15 | 298 | 16.1 | 24.1 | 0.00 | 0.00 | 0.00 | 56 | 1015.9 |
| 20260506003529 | 15 | 302 | 12.9 | 24.1 | 0.00 | 0.00 | 0.00 | 56 | 1015.8 |
| 20260506003042 | 15 | 286 | 16.1 | 25.7 | 0.00 | 0.00 | 0.00 | 54 | 1015.9 |
| 20260506002530 | 16 | 272 | 19.3 | 25.7 | 0.00 | 0.00 | 0.00 | 54 | 1015.9 |
| 20260506002029 | 16 | 286 | 14.5 | 27.4 | 0.00 | 0.00 | 0.00 | 56 | 1015.9 |
| 20260506001537 | 16 | 273 | 17.7 | 27.4 | 0.00 | 0.00 | 0.00 | 54 | 1015.9 |
| 20260506001031 | 16 | 254 | 17.7 | 27.4 | 0.00 | 0.00 | 0.00 | 58 | 1015.9 |
| 20260506000531 | 16 | 286 | 19.3 | 27.4 | 0.00 | 0.00 | 0.00 | 57 | 1015.8 |
| 20260506000043 | 16 | 285 | 17.7 | 29.0 | 0.00 | 0.00 | 0.00 | 57 | 1015.8 |
| 20260505235529 | 16 | 308 | 19.3 | 37.0 | 0.00 | 0.00 | 0.00 | 58 | 1015.9 |
| 20260505235030 | 16 | 309 | 19.3 | 37.0 | 0.00 | 0.00 | 0.00 | 56 | 1015.8 |
| 20260505234542 | 16 | 279 | 24.1 | 37.0 | 0.00 | 0.00 | 0.00 | 56 | 1015.7 |
| 20260505234030 | 16 | 241 | 19.3 | 27.4 | 0.00 | 0.00 | 0.00 | 57 | 1015.7 |
| 20260505233530 | 16 | 248 | 17.7 | 29.0 | 0.00 | 0.00 | 0.00 | 59 | 1015.6 |
| 20260505233043 | 16 | 283 | 16.1 | 29.0 | 0.00 | 0.00 | 0.00 | 58 | 1015.7 |
| 20260505232530 | 16 | 279 | 19.3 | 29.0 | 0.00 | 0.00 | 0.00 | 58 | 1015.6 |
| 20260505232030 | 16 | 280 | 19.3 | 25.7 | 0.00 | 0.00 | 0.00 | 57 | 1015.7 |
| 20260505231542 | 16 | 285 | 14.5 | 22.5 | 0.00 | 0.00 | 0.00 | 58 | 1015.6 |
| 20260505231029 | 16 | 254 | 14.5 | 19.3 | 0.00 | 0.00 | 0.00 | 59 | 1015.7 |
| 20260505230529 | 16 | 241 | 9.7 | 20.9 | 0.00 | 0.00 | 0.00 | 59 | 1015.5 |
| 20260505230046 | 16 | 279 | 12.9 | 22.5 | 0.00 | 0.00 | 0.00 | 58 | 1015.5 |
| 20260505225530 | 16 | 288 | 17.7 | 25.7 | 0.00 | 0.00 | 0.00 | 58 | 1015.4 |
| 20260505225033 | 16 | 274 | 17.7 | 27.4 | 0.00 | 0.00 | 0.00 | 57 | 1015.5 |
| 20260505224546 | 17 | 273 | 19.3 | 27.4 | 0.00 | 0.00 | 0.00 | 55 | 1015.5 |
| 20260505224030 | 17 | 273 | 14.5 | 22.5 | 0.00 | 0.00 | 0.00 | 52 | 1015.5 |
| 20260505223529 | 17 | 277 | 11.3 | 20.9 | 0.00 | 0.00 | 0.00 | 53 | 1015.4 |
| 20260505223047 | 17 | 302 | 12.9 | 20.9 | 0.00 | 0.00 | 0.00 | 52 | 1015.6 |
| 20260505222529 | 17 | 252 | 12.9 | 20.9 | 0.00 | 0.00 | 0.00 | 55 | 1015.5 |
| 20260505222029 | 17 | 279 | 12.9 | 27.4 | 0.00 | 0.00 | 0.00 | 55 | 1015.5 |
| 20260505221547 | 17 | 277 | 16.1 | 27.4 | 0.00 | 0.00 | 0.00 | 54 | 1015.5 |
| 20260505221029 | 17 | 305 | 14.5 | 22.5 | 0.00 | 0.00 | 0.00 | 52 | 1015.4 |
| 20260505220531 | 17 | 305 | 11.3 | 17.7 | 0.00 | 0.00 | 0.00 | 52 | 1015.3 |
| 20260505220045 | 18 | 261 | 8.0 | 17.7 | 0.00 | 0.00 | 0.00 | 53 | 1015.2 |
| 20260505215530 | 17 | 275 | 12.9 | 17.7 | 0.00 | 0.00 | 0.00 | 55 | 1015.2 |
| 20260505215030 | 17 | 273 | 11.3 | 24.1 | 0.00 | 0.00 | 0.00 | 57 | 1015.1 |
| 20260505214541 | 17 | 249 | 12.9 | 27.4 | 0.00 | 0.00 | 0.00 | 56 | 1015.2 |
| 20260505214028 | 17 | 234 | 16.1 | 27.4 | 0.00 | 0.00 | 0.00 | 55 | 1015.2 |
| 20260505213534 | 17 | 236 | 16.1 | 27.4 | 0.00 | 0.00 | 0.00 | 54 | 1015.2 |
| 20260505213047 | 17 | 251 | 12.9 | 22.5 | 0.00 | 0.00 | 0.00 | 54 | 1015.2 |
| 20260505212533 | 17 | 235 | 11.3 | 22.5 | 0.00 | 0.00 | 0.00 | 55 | 1015.2 |
| 20260505212030 | 17 | 265 | 16.1 | 22.5 | 0.00 | 0.00 | 0.00 | 55 | 1015.0 |
| 20260505211544 | 17 | 280 | 14.5 | 22.5 | 0.00 | 0.00 | 0.00 | 54 | 1014.9 |
| 20260505211030 | 18 | 248 | 14.5 | 24.1 | 0.00 | 0.00 | 0.00 | 55 | 1014.9 |
| 20260505210529 | 17 | 254 | 14.5 | 24.1 | 0.00 | 0.00 | 0.00 | 55 | 1014.8 |
| 20260505210042 | 17 | 278 | 17.7 | 24.1 | 0.00 | 0.00 | 0.00 | 55 | 1014.7 |
| 20260505205534 | 17 | 285 | 16.1 | 22.5 | 0.00 | 0.00 | 0.00 | 56 | 1014.6 |
| 20260505205030 | 17 | 279 | 12.9 | 20.9 | 0.00 | 0.00 | 0.00 | 55 | 1014.4 |
| 20260505204538 | 18 | 262 | 12.9 | 20.9 | 0.00 | 0.00 | 0.00 | 55 | 1014.3 |
| 20260505204032 | 17 | 269 | 11.3 | 17.7 | 0.00 | 0.00 | 0.00 | 54 | 1014.3 |
| 20260505203529 | 17 | 281 | 11.3 | 17.7 | 0.00 | 0.00 | 0.00 | 55 | 1014.4 |
| 20260505203044 | 17 | 297 | 12.9 | 17.7 | 0.00 | 0.00 | 0.00 | 55 | 1014.4 |
| 20260505202529 | 17 | 293 | 9.7 | 16.1 | 0.00 | 0.00 | 0.00 | 55 | 1014.3 |
| 20260505202030 | 17 | 274 | 8.0 | 14.5 | 0.00 | 0.00 | 0.00 | 54 | 1014.2 |
| 20260505201537 | 17 | 285 | 9.7 | 16.1 | 0.00 | 0.00 | 0.00 | 53 | 1014.3 |
| 20260505201029 | 17 | 255 | 9.7 | 16.1 | 0.00 | 0.00 | 0.00 | 55 | 1014.2 |
| 20260505200530 | 17 | 340 | 8.0 | 12.9 | 0.00 | 0.00 | 0.00 | 55 | 1014.2 |
| 20260505200044 | 17 | 264 | 6.4 | 12.9 | 0.00 | 0.00 | 0.00 | 56 | 1014.2 |
| 20260505195533 | 17 | 327 | 4.8 | 12.9 | 0.00 | 0.00 | 0.00 | 56 | 1014.1 |
| 20260505195031 | 17 | 331 | 4.8 | 12.9 | 0.00 | 0.00 | 0.00 | 56 | 1014.2 |
| 20260505194542 | 17 | 332 | 6.4 | 12.9 | 0.00 | 0.00 | 0.00 | 57 | 1014.1 |
| 20260505194030 | 17 | 340 | 8.0 | 12.9 | 0.00 | 0.00 | 0.00 | 57 | 1014.1 |
| 20260505193532 | 17 | 294 | 8.0 | 12.9 | 0.00 | 0.00 | 0.00 | 56 | 1014.2 |
| 20260505193101 | 17 | 308 | 6.4 | 11.3 | 0.00 | 0.00 | 0.00 | 57 | 1014.2 |
| 20260505192529 | 17 | 279 | 6.4 | 11.3 | 0.00 | 0.00 | 0.00 | 57 | 1014.2 |
| 20260505192029 | 17 | 292 | 4.8 | 12.9 | 0.00 | 0.00 | 0.00 | 58 | 1014.2 |
| 20260505191542 | 16 | 311 | 3.2 | 12.9 | 0.00 | 0.00 | 0.00 | 59 | 1014.2 |
| 20260505191031 | 16 | 285 | 8.0 | 11.3 | 0.00 | 0.00 | 0.00 | 58 | 1014.2 |
| 20260505190529 | 16 | 295 | 6.4 | 12.9 | 0.00 | 0.00 | 0.00 | 59 | 1014.2 |
| 20260505190041 | 16 | 281 | 8.0 | 12.9 | 0.00 | 0.00 | 0.00 | 59 | 1014.2 |
| 20260505185529 | 16 | 286 | 6.4 | 12.9 | 0.00 | 0.00 | 0.00 | 60 | 1014.2 |
| 20260505185029 | 16 | 306 | 9.7 | 16.1 | 0.00 | 0.00 | 0.00 | 60 | 1014.1 |
| 20260505184537 | 16 | 313 | 9.7 | 16.1 | 0.00 | 0.00 | 0.00 | 61 | 1014.1 |
| 20260505184030 | 15 | 296 | 9.7 | 16.1 | 0.00 | 0.00 | 0.00 | 63 | 1014.1 |
| 20260505183532 | 15 | 295 | 11.3 | 16.1 | 0.00 | 0.00 | 0.00 | 63 | 1014.1 |
| 20260505183043 | 15 | 314 | 11.3 | 16.1 | 0.00 | 0.00 | 0.00 | 65 | 1014.0 |
| 20260505182529 | 16 | 284 | 11.3 | 16.1 | 0.00 | 0.00 | 0.00 | 63 | 1014.0 |
| 20260505182029 | 16 | 288 | 9.7 | 14.5 | 0.00 | 0.00 | 0.00 | 63 | 1013.9 |
| 20260505181543 | 16 | 283 | 8.0 | 16.1 | 0.00 | 0.00 | 0.00 | 61 | 1013.9 |
| 20260505181030 | 16 | 288 | 11.3 | 16.1 | 0.00 | 0.00 | 0.00 | 60 | 1013.8 |
| 20260505180529 | 17 | 284 | 9.7 | 12.9 | 0.00 | 0.00 | 0.00 | 60 | 1013.8 |
| 20260505180045 | 16 | 144 | 1.6 | 6.4 | 0.00 | 0.00 | 0.00 | 60 | 1013.7 |
| 20260505175529 | 17 | 144 | 1.6 | 6.4 | 0.00 | 0.00 | 0.00 | 60 | 1013.7 |
| 20260505175029 | 16 | 107 | 1.6 | 6.4 | 0.00 | 0.00 | 0.00 | 63 | 1013.8 |
| 20260505174541 | 15 | 41 | 3.2 | 4.8 | 0.00 | 0.00 | 0.00 | 65 | 1013.6 |
| 20260505174030 | 15 | 0 | 1.6 | 6.4 | 0.00 | 0.00 | 0.00 | 65 | 1013.7 |
| 20260505173530 | 15 | 293 | 1.6 | 8.0 | 0.00 | 0.00 | 0.00 | 67 | 1013.6 |
| 20260505173041 | 15 | 293 | 3.2 | 8.0 | 0.00 | 0.00 | 0.00 | 69 | 1013.6 |
| 20260505172529 | 14 | 302 | 4.8 | 11.3 | 0.00 | 0.00 | 0.00 | 70 | 1013.7 |
| 20260505172029 | 14 | 303 | 4.8 | 11.3 | 0.00 | 0.00 | 0.00 | 72 | 1013.7 |
| 20260505171548 | 13 | 286 | 8.0 | 12.9 | 0.00 | 0.00 | 0.00 | 72 | 1013.7 |
| 20260505171029 | 13 | 275 | 4.8 | 12.9 | 0.00 | 0.00 | 0.00 | 71 | 1013.7 |
| 20260505170529 | 14 | 267 | 9.7 | 12.9 | 0.00 | 0.00 | 0.00 | 71 | 1013.6 |
| 20260505170043 | 14 | 309 | 8.0 | 16.1 | 0.00 | 0.00 | 0.00 | 70 | 1013.6 |
| 20260505165530 | 14 | 288 | 11.3 | 16.1 | 0.00 | 0.00 | 0.00 | 71 | 1013.5 |
| 20260505165030 | 14 | 284 | 11.3 | 16.1 | 0.00 | 0.00 | 0.00 | 70 | 1013.5 |
| 20260505164544 | 14 | 300 | 9.7 | 12.9 | 0.00 | 0.00 | 0.00 | 70 | 1013.5 |
| 20260505164031 | 15 | 279 | 6.4 | 12.9 | 0.00 | 0.00 | 0.00 | 69 | 1013.4 |
| 20260505163528 | 15 | 284 | 6.4 | 12.9 | 0.00 | 0.00 | 0.00 | 69 | 1013.4 |
| 20260505163042 | 15 | 220 | 1.6 | 3.2 | 0.00 | 0.00 | 0.00 | 69 | 1013.2 |
| 20260505162529 | 14 | 170 | 0.0 | 3.2 | 0.00 | 0.00 | 0.00 | 70 | 1013.2 |
| 20260505162030 | 14 | 170 | 0.0 | 3.2 | 0.00 | 0.00 | 0.00 | 71 | 1013.2 |
| 20260505161544 | 14 | 170 | 0.0 | 3.2 | 0.00 | 0.00 | 0.00 | 74 | 1013.3 |
| 20260505161029 | 13 | 170 | 0.0 | 3.2 | 0.00 | 0.00 | 0.00 | 73 | 1013.3 |
| 20260505160530 | 13 | 0 | 1.6 | 3.2 | 0.00 | 0.00 | 0.00 | 76 | 1013.2 |
| 20260505153048 | 12 | 185 | 1.6 | 3.2 | 0.00 | 0.00 | 0.00 | 76 | 1012.7 |
| 20260505152529 | 12 | 185 | 0.0 | 3.2 | 0.00 | 0.00 | 0.00 | 79 | 1012.7 |
| 20260505152036 | 12 | 185 | 0.0 | 3.2 | 0.00 | 0.00 | 0.00 | 80 | 1012.7 |
| 20260505151542 | 12 | 185 | 0.0 | 3.2 | 0.00 | 0.00 | 0.00 | 82 | 1012.8 |
| 20260505151029 | 11 | 0 | 1.6 | 3.2 | 0.00 | 0.00 | 0.00 | 85 | 1012.8 |
| 20260505150530 | 11 | 185 | 0.0 | 3.2 | 0.00 | 0.00 | 0.00 | 87 | 1012.7 |
| 20260505140530 | 8 | 0 | 0.0 | 4.8 | 0.00 | 0.00 | 0.00 | 93 | 1012.3 |
| 20260505125030 | 7 | 122 | 3.2 | 4.8 | 0.00 | 0.00 | 0.00 | 92 | 1011.3 |
| 20260505124547 | 7 | 122 | 1.6 | 4.8 | 0.00 | 0.00 | 0.00 | 92 | 1011.3 |
| 20260505124029 | 7 | 122 | 3.2 | 4.8 | 0.00 | 0.00 | 0.00 | 92 | 1011.4 |
| 20260505123533 | 7 | 122 | 3.2 | 3.2 | 0.00 | 0.00 | 0.00 | 92 | 1011.4 |
| 20260505123056 | 7 | 122 | 1.6 | 3.2 | 0.00 | 0.00 | 0.00 | 92 | 1011.3 |
| 20260505122530 | 7 | 122 | 1.6 | 4.8 | 0.00 | 0.00 | 0.00 | 91 | 1011.4 |
| 20260505122030 | 7 | 122 | 1.6 | 4.8 | 0.00 | 0.00 | 0.00 | 91 | 1011.5 |
| 20260505121543 | 7 | 122 | 3.2 | 4.8 | 0.00 | 0.00 | 0.00 | 91 | 1011.4 |
| 20260505121030 | 7 | 93 | 1.6 | 3.2 | 0.00 | 0.00 | 0.00 | 91 | 1011.4 |
| 20260505120530 | 7 | 93 | 1.6 | 4.8 | 0.00 | 0.00 | 0.00 | 91 | 1011.5 |
| 20260505120052 | 7 | 93 | 3.2 | 6.4 | 0.00 | 0.00 | 0.00 | 91 | 1011.4 |
| 20260505115529 | 7 | 93 | 6.4 | 6.4 | 0.00 | 0.00 | 0.00 | 91 | 1011.4 |
| 20260505115029 | 7 | 93 | 4.8 | 4.8 | 0.00 | 0.00 | 0.00 | 91 | 1011.4 |
| 20260505114537 | 7 | 93 | 3.2 | 4.8 | 0.00 | 0.00 | 0.00 | 91 | 1011.4 |
| 20260505114028 | 7 | 303 | 0.0 | 3.2 | 0.00 | 0.00 | 0.00 | 90 | 1011.5 |
| 20260505113532 | 7 | 0 | 0.0 | 0.0 | 0.00 | 0.00 | 0.00 | 90 | 1011.4 |
| 20260505113049 | 7 | 0 | 0.0 | 3.2 | 0.00 | 0.00 | 0.00 | 90 | 1011.5 |
| 20260505112530 | 7 | 0 | 0.0 | 3.2 | 0.00 | 0.00 | 0.00 | 90 | 1011.4 |
| 20260505112033 | 8 | 303 | 0.0 | 3.2 | 0.00 | 0.00 | 0.00 | 90 | 1011.4 |
| 20260505111544 | 8 | 0 | 1.6 | 3.2 | 0.00 | 0.00 | 0.00 | 90 | 1011.4 |
| 20260505111033 | 8 | 303 | 0.0 | 3.2 | 0.00 | 0.00 | 0.00 | 90 | 1011.3 |
| 20260505110530 | 8 | 303 | 1.6 | 3.2 | 0.00 | 0.00 | 0.00 | 90 | 1011.4 |
| 20260505102029 | 8 | 0 | 0.0 | 0.0 | 0.00 | 0.00 | 0.00 | 89 | 1011.3 |
| 20260505101540 | 8 | 0 | 0.0 | 1.6 | 0.00 | 0.00 | 0.00 | 89 | 1011.3 |
| 20260505101034 | 8 | 0 | 0.0 | 1.6 | 0.00 | 0.00 | 0.00 | 89 | 1011.3 |
| 20260505100530 | 8 | 0 | 0.0 | 1.6 | 0.00 | 0.00 | 0.00 | 89 | 1011.3 |
| 20260505100042 | 8 | 303 | 1.6 | 1.6 | 0.00 | 0.00 | 0.00 | 89 | 1011.3 |
| 20260505095529 | 8 | 303 | 1.6 | 4.8 | 0.00 | 0.00 | 0.00 | 89 | 1011.3 |
| 20260505095029 | 9 | 302 | 1.6 | 4.8 | 0.00 | 0.00 | 0.00 | 88 | 1011.4 |
| 20260505094537 | 9 | 303 | 4.8 | 4.8 | 0.00 | 0.00 | 0.00 | 88 | 1011.4 |
| 20260505094029 | 9 | 303 | 1.6 | 4.8 | 0.00 | 0.00 | 0.00 | 87 | 1011.5 |
| 20260505093529 | 9 | 303 | 1.6 | 3.2 | 0.00 | 0.00 | 0.00 | 87 | 1011.4 |
| 20260505093045 | 9 | 303 | 3.2 | 3.2 | 0.00 | 0.00 | 0.00 | 87 | 1011.5 |
| 20260505092529 | 9 | 303 | 1.6 | 3.2 | 0.00 | 0.00 | 0.00 | 85 | 1011.4 |
| 20260505092030 | 9 | 303 | 0.0 | 3.2 | 0.00 | 0.00 | 0.00 | 85 | 1011.3 |
| 20260505091551 | 10 | 0 | 0.0 | 0.0 | 0.00 | 0.00 | 0.00 | 85 | 1011.2 |
| 20260505091030 | 10 | 0 | 0.0 | 0.0 | 0.00 | 0.00 | 0.00 | 85 | 1011.0 |
| 20260505090529 | 10 | 0 | 0.0 | 0.0 | 0.00 | 0.00 | 0.00 | 85 | 1011.1 |
| 20260505090045 | 10 | 0 | 0.0 | 0.0 | 0.00 | 0.00 | 0.00 | 85 | 1011.1 |
| 20260505085530 | 10 | 0 | 0.0 | 0.0 | 0.00 | 0.00 | 0.00 | 85 | 1011.2 |
| 20260505085030 | 10 | 0 | 0.0 | 0.0 | 0.00 | 0.00 | 0.00 | 85 | 1011.1 |
| 20260505084600 | 10 | 0 | 0.0 | 0.0 | 0.00 | 0.00 | 0.00 | 84 | 1011.1 |
| 20260505084029 | 10 | 0 | 0.0 | 0.0 | 0.00 | 0.00 | 0.00 | 84 | 1011.0 |
| 20260505083530 | 10 | 0 | 0.0 | 0.0 | 0.00 | 0.00 | 0.00 | 84 | 1011.0 |
| 20260505083057 | 10 | 0 | 0.0 | 0.0 | 0.00 | 0.00 | 0.00 | 83 | 1011.0 |
| 20260505082529 | 10 | 0 | 0.0 | 1.6 | 0.00 | 0.00 | 0.00 | 82 | 1010.9 |
| 20260505082029 | 11 | 0 | 0.0 | 1.6 | 0.00 | 0.00 | 0.00 | 81 | 1010.9 |
| 20260505081556 | 11 | 303 | 0.0 | 1.6 | 0.00 | 0.00 | 0.00 | 81 | 1011.0 |
| 20260505081030 | 11 | 303 | 1.6 | 3.2 | 0.00 | 0.00 | 0.00 | 79 | 1010.9 |
| 20260505080529 | 11 | 303 | 1.6 | 3.2 | 0.00 | 0.00 | 0.00 | 78 | 1010.9 |
| 20260505080058 | 11 | 303 | 1.6 | 3.2 | 0.00 | 0.00 | 0.00 | 78 | 1010.9 |
| 20260505075529 | 11 | 0 | 0.0 | 3.2 | 0.00 | 0.00 | 0.00 | 78 | 1010.8 |
| 20260505075030 | 11 | 0 | 0.0 | 3.2 | 0.00 | 0.00 | 0.00 | 78 | 1010.9 |
| 20260505074543 | 11 | 0 | 0.0 | 3.2 | 0.00 | 0.00 | 0.00 | 77 | 1010.9 |
| 20260505074030 | 11 | 303 | 3.2 | 3.2 | 0.00 | 0.00 | 0.00 | 77 | 1010.9 |
| 20260505073529 | 11 | 303 | 1.6 | 4.8 | 0.00 | 0.00 | 0.00 | 77 | 1010.9 |
| 20260505073052 | 12 | 303 | 1.6 | 4.8 | 0.00 | 0.00 | 0.00 | 76 | 1011.0 |
| 20260505072530 | 12 | 303 | 4.8 | 4.8 | 0.00 | 0.00 | 0.00 | 76 | 1011.0 |
| 20260505072029 | 12 | 303 | 3.2 | 4.8 | 0.00 | 0.00 | 0.00 | 75 | 1011.0 |
| 20260505071546 | 12 | 303 | 3.2 | 11.3 | 0.00 | 0.00 | 0.00 | 75 | 1011.0 |
| 20260505071029 | 12 | 303 | 4.8 | 11.3 | 0.00 | 0.00 | 0.00 | 75 | 1011.0 |